Location: *
(22.3500°N, 31.6833°E)
Time: 12:18:43
(UTC+00:00)

Daily predictions for brighter satellites

Satellite Brightness Start Highest point End
(mag) Time Altitude Azimuth Time Altitude Azimuth Time Altitude Azimuth
Cosmos 304 Rocket 3.7 16:56:15 10° S 17:01:01 74° ESE 17:05:48 10° NNE
USA 238 DEB 3.7 16:56:40 10° S 17:02:53 54° ESE 17:09:16 10° NE
USA 238 3.7 16:56:48 10° S 17:03:00 53° ESE 17:09:21 10° NE
Cosmos 2369 4.1 16:59:49 10° SSW 17:05:30 71° WNW 17:11:12 10° NNE
Cosmos 2218 Rocket 4.1 16:59:27 10° N 17:05:50 74° E 17:12:08 10° S
Cosmos 1689 Rocket 1.8 17:03:20 10° NNE 17:06:09 84° ESE 17:08:57 10° S
Cosmos 1980 Rocket 2.2 17:03:33 10° SSW 17:09:12 83° ESE 17:14:51 10° NNE
Iridium 51 4.4 17:06:12 10° NNE 17:09:37 42° E 17:12:54 10° SSE
Genesis I 4.3 17:07:35 10° SSE 17:10:29 21° ESE 17:13:25 10° ENE
HJ-1C 3.7 17:11:31 10° S 17:14:48 66° W 17:18:03 10° NNW
MOS 1-B Rocket 3.9 17:09:29 10° NNE 17:15:08 78° ESE 17:21:19 10° S
Cosmos 1908 Rocket 3.6 17:11:02 10° N 17:15:22 84° W 17:19:41 10° S
Cosmos 1378 4.0 17:11:47 10° SSW 17:15:24 52° W 17:19:03 10° N
Cosmos 2221 Rocket 4.4 17:11:37 10° SSE 17:15:37 32° E 17:19:35 10° NNE
ARGOS 3.7 17:10:22 10° S 17:15:39 62° W 17:20:59 10° NNW
FALCON 9 DEB 4.5 17:13:11 10° S 17:15:43 19° ESE 17:18:16 10° ENE
SAR-Lupe-4 3.5 17:13:05 10° NNE 17:16:39 67° ESE 17:20:11 10° S
ERS-2 2.5 17:14:19 10° NNE 17:17:47 42° ESE 17:21:14 10° S
CENTAUR R/B 2.1 17:13:48 10° SSW 17:18:59 67° ESE 17:24:59 10° NNE
H-2A R/B 3.9 17:14:46 10° SSW 17:19:19 32° W 17:24:00 10° NW
BREEZE-M DEB (TANK) 3.0 17:16:37 10° SW 17:20:29 54° NW 17:22:46 10° NNE
SAR-Lupe-1 4.1 17:18:59 10° N 17:22:33 83° WNW 17:26:07 10° SSW
CSL-04 Rocket 3.7 17:18:23 10° SSE 17:23:48 70° ENE 17:29:17 10° N
Cosmos 1821 Rocket 4.5 17:20:11 10° NNE 17:25:54 40° E 17:31:28 10° SSE
Ariane Rocket 4.5 17:26:55 13° ESE 17:29:39 20° ENE 17:33:13 10° NNE
Timation 2 Rocket 4.0 17:26:42 10° NNW 17:32:52 66° ENE 17:38:48 12° SSE
ASTRO E2 3.4 17:31:19 10° SW 17:34:52 32° SSE 17:37:14 18° E
Palapa B4 Rocket 4.4 17:29:55 10° W 17:35:49 68° S 17:43:58 15° ESE
Cosmos 1356 Rocket 3.7 17:33:29 10° NNW 17:37:32 68° W 17:41:31 10° S
Cosmos 1805 3.9 17:37:29 10° NNE 17:41:04 35° E 17:42:51 23° SE
Hubble Space Telescope 0.9 17:37:08 10° WNW 17:41:14 69° NNE 17:43:54 21° E
Cosmos 1624 Rocket 4.0 17:39:48 10° S 17:45:07 84° ESE 17:50:26 10° NNE
Cosmos 2219 3.4 17:42:49 10° NNW 17:48:33 73° WSW 17:53:54 12° S
Palapa 6 Rocket 4.3 17:42:22 10° W 17:49:32 90° N 17:55:51 18° E
FUSE 3.9 17:46:33 10° W 17:51:57 81° SSW 17:55:06 25° ESE
Cosmos 1782 Rocket 4.2 17:47:53 10° NNW 17:52:06 56° W 17:56:21 10° S
Cosmos 2263 Rocket 4.1 17:50:39 10° NE 17:53:06 13° ENE 17:54:22 12° ENE
Cosmos 1674 Rocket 3.7 17:51:15 19° SSE 17:54:08 50° E 17:58:23 10° NNE
Cosmos 2297 Rocket 2.9 17:49:02 10° NNW 17:54:29 51° WSW 17:59:55 10° S
Aureole 2 Rocket 4.2 17:55:00 10° NE 17:55:08 11° NE 17:55:08 11° NE
Cosmos 2227 Rocket 2.5 17:52:20 10° NNW 17:57:56 68° WSW 18:02:37 15° S
SL-24 DEB 4.5 17:56:43 27° SE 17:58:57 49° E 18:03:30 10° N
Atlas Centaur 2 2.7 17:56:26 10° W 17:59:55 29° SSW 18:01:29 23° S
Cosmos 1733 3.3 17:56:17 10° N 18:00:04 55° E 18:01:11 38° SE
Cosmos 1300 Rocket 3.5 17:57:07 10° N 18:01:23 64° E 18:03:16 32° SSE
CZ-2C R/B 4.4 18:02:42 10° NE 18:07:02 34° E 18:07:16 34° ESE
Sich 1 Rocket 3.4 18:02:54 10° N 18:07:17 88° E 18:09:30 29° S
Cosmos 1934 Rocket 4.2 18:01:28 10° N 18:07:21 48° E 18:09:57 31° SE
PEGASUS R/B 4.4 18:08:02 35° SW 18:08:36 42° WSW 18:11:38 10° NNW
Cosmos 1452 Rocket 4.0 18:08:15 34° SE 18:09:18 38° E 18:14:09 10° NNE
Cosmos 2251 Rocket 3.8 18:05:13 10° NNW 18:10:28 67° WSW 18:13:59 21° S
Cosmos 1400 Rocket 2.9 18:07:16 10° N 18:11:00 48° E 18:11:11 48° E
Helios 1A Rocket 4.1 18:11:38 15° SSW 18:14:37 40° W 18:18:27 10° NNW
OBJECT-B 2.0 18:13:39 25° SSW 18:14:57 38° W 18:17:58 10° NNW
NOSS 3-2 (C) 4.5 18:13:40 10° SW 18:18:39 41° WNW 18:24:04 10° N
BREEZE-M DEB (TANK) 3.6 18:17:00 10° WSW 18:19:38 25° NW 18:21:40 10° NNE
Cosmos 614 Rocket 4.3 18:16:41 10° NNW 18:21:49 64° WSW 18:24:27 29° S
Yuri Rocket 4.2 18:15:58 10° WSW 18:22:11 69° SSE 18:30:44 11° ENE
USA 186 4.1 18:22:42 11° WSW 18:23:38 13° W 18:25:00 10° WNW
Cosmos 2285 Rocket 4.1 18:17:59 10° SSW 18:24:24 80° WNW 18:30:50 10° NNE
Cosmos 292 Rocket 3.7 18:24:23 23° SSW 18:27:22 88° W 18:32:13 10° NNE
ATLAS 3B R/B 4.3 18:31:31 16° ENE 18:31:31 16° ENE 18:33:05 10° ENE
Resurs 1-3 3.5 18:27:26 55° S 18:28:22 84° W 18:32:45 10° NNW
Cosmos 1842 4.4 18:25:53 18° SSW 18:28:27 41° W 18:32:10 10° NNW
SL-16 R/B 2.3 18:24:39 10° SSW 18:30:16 74° WNW 18:35:56 10° NNE
Meteor 1-21 4.1 18:29:33 28° S 18:32:45 89° WNW 18:38:25 10° N
Cosmos 2360 Rocket 2.7 18:34:31 39° ENE 18:34:31 39° ENE 18:38:50 10° NE
Cosmos 2322 Rocket 2.1 18:29:19 16° SSW 18:33:55 88° ESE 18:39:39 10° NNE
Cosmos 407 Rocket 3.4 18:28:59 10° N 18:34:15 74° ENE 18:35:00 62° SE
Fermi 3.9 18:31:03 10° W 18:35:10 68° N 18:35:22 66° NNE
Cosmos 1605 Rocket 4.1 18:29:53 10° N 18:36:06 53° E 18:37:01 49° ESE
IUS R/B (1) 3.0 18:20:08 10° WNW 18:36:38 87° NNE 18:37:31 59° ESE
Cosmos 2082 4.0 18:31:48 10° NNW 18:37:26 62° WSW 18:39:32 38° S
NATO 3D Rocket 3.1 18:35:11 10° W 18:39:52 82° S 18:40:10 77° SE
Meteor 2-20 4.3 18:38:11 39° S 18:40:36 84° E 18:46:43 10° N
Okean 1 Rocket 4.1 18:37:15 10° N 18:40:10 34° NE 18:40:10 34° NE
SPOT 3 Rocket 3.6 18:41:37 57° ENE 18:41:40 57° ENE 18:46:42 10° N
Cosmos 1766 4.4 18:41:34 10° NNW 18:45:09 37° W 18:45:32 36° WSW
Cosmos 1190 Rocket 3.9 18:40:01 10° N 18:45:17 67° ENE 18:45:21 67° E
Cosmos 2237 4.0 18:48:47 60° S 18:49:51 85° ESE 18:55:33 10° NNE
Cosmos 1470 4.2 18:52:46 10° N 18:54:58 32° N 18:54:58 32° N
Resurs 01 Rocket 2.3 19:02:41 53° WNW 19:02:41 53° WNW 19:06:23 10° NNW
USA 215 3.2 18:56:07 10° NE 19:02:40 84° NW 19:09:12 10° SW
Delta 142 4.2 19:00:07 10° WNW 19:06:57 78° N 19:06:57 78° N
Ariane Rocket 4.4 19:07:07 28° SW 19:08:18 31° W 19:12:46 10° NW
Landsat 7 4.4 19:10:25 55° NW 19:10:25 55° NW 19:14:23 10° NNW
Aurora 2 Rocket 4.3 19:02:04 10° W 19:11:15 50° SSW 19:11:38 49° SSW
CZ-3C R/B 3.4 18:39:59 10° W 19:18:07 42° SW 19:19:22 40° SSW
Hubble Space Telescope 3.5 19:18:37 10° W 19:19:12 13° W 19:19:12 13° W
Cosmos 2333 Rocket 3.9 19:40:00 25° NNE 19:40:00 25° NNE 19:42:18 10° NNE
Cosmos 2263 Rocket 3.0 19:31:40 10° NNW 19:36:05 48° WNW 19:36:05 48° WNW
ATLAS 2A CENTAUR R/B 3.4 19:42:00 10° WSW 19:52:57 48° WSW 19:52:57 48° WSW
Cosmos 2219 Rocket 4.0 19:59:52 23° NNE 19:59:52 23° NNE 20:01:56 10° NNE
ATLAS 3B R/B 3.7 20:18:38 38° NW 20:18:38 38° NW 20:24:20 10° N
Terra 4.4 20:22:54 17° NNW 20:22:54 17° NNW 20:23:59 10° NNW
Lacrosse 5 4.5 20:27:07 10° NNW 20:28:12 17° NNW 20:28:12 17° NNW
SL-16 R/B 4.5 22:54:47 21° ENE 22:54:47 21° ENE 22:58:36 10° NNE
Cosmos 1943 Rocket 4.3 23:22:04 10° N 23:23:45 20° N 23:23:45 20° N
Resurs 1-4 Rocket 4.1 23:40:04 10° N 23:41:58 22° N 23:41:58 22° N
CZ-2D R/B 4.1 23:45:06 10° N 23:46:50 21° NNW 23:46:50 21° NNW
